GLOBALSTAR M050 [-]

Last updated on July 6, 2021, 3:36 p.m. UTC

1 25908U 99049B   21186.96948696 -.00000069  00000-0  21339-3 0  9997
2 25908  51.9991 115.4515 0009547  35.9962  43.7047 12.07398855973980
UTC
Height (km)
Latitude
Longitude
Inclination
Orbital Period
UTC large
Height (km)
Speed (km/s)
/
Latitude / Longitude
Inclination (degrees)
Orbital Period (minutes)
Azimuth
Elevation
Range (km)
Doppler Factor
iOS Compass Heading
iOS Angle